Location: Silverdale
(47.6506°N, 122.6941°W)
Time: 10:29:16
(UTC+00:00)

Courier 1B - Pass Details

Date: 06 October 2022
Orbit: 962 x 1209 km, 28.3° (Epoch: 04 December)

Event Time Altitude Azimuth Distance (km) Brightness Sun altitude
Rises 21:10:37 0° 220° (SW) 4,069 11.7 34.7°
Reaches altitude 10° 21:15:09 10° 197° (SSW) 3,070 11.5 34.4°
Maximum altitude 21:18:43 14° 169° (S) 2,745 10.8 34.1°
Drops below altitude 10° 21:22:12 10° 141° (SE) 2,994 10.5 33.9°
Sets 21:26:30 0° 117° (ESE) 3,897 10.7 33.6°
